Temperature
10 9 8 7 5 4 3 2 2 2 2 2 2 1 1 -0 -1 -2 -3 -4 -5 -6 -7 -8 -8 -9 -9 -9 -10 -10 -10 -10 -10 -11 -11 -11 -10 -11 -10 -10 -10 -10 -9
11 10 8 7 5 4 3 2 1 2 2 2 1 1 0 -1 -2 -3 -4 -5 -6 -7 -8 -8 -9 -9 -10 -10 -10 -10 -10 -10 -10 -11 -11 -11 -11 -11 -11 -11 -11 -10 -10
12 11 9 7 5 4 3 2 1 2 2 1 1 0 -0 -1 -2 -3 -4 -5 -6 -7 -8 -9 -9 -9 -10 -10 -10 -10 -10 -10 -10 -10 -11 -11 -11 -11 -11 -11 -11 -10 -10
13 12 10 8 6 4 3 2 1 2 2 1 1 -0 -1 -1 -2 -3 -4 -5 -6 -7 -8 -9 -9 -10 -10 -10 -10 -10 -10 -10 -10 -10 -10 -11 -11 -11 -11 -11 -11 -10 -10
12 11 10 8 6 4 3 2 2 2 1 1 0 -0 -1 -2 -3 -4 -5 -6 -6 -7 -8 -9 -10 -10 -10 -10 -10 -10 -10 -10 -10 -10 -10 -10 -11 -11 -11 -11 -11 -10 -10
13 11 10 8 6 4 3 2 2 1 1 1 0 -0 -1 -2 -3 -4 -5 -6 -7 -8 -8 -9 -10 -10 -10 -10 -11 -11 -10 -10 -10 -10 -11 -11 -11 -11 -11 -11 -11 -11 -9
12 11 9 7 6 4 3 2 2 1 1 0 -0 -1 -1 -2 -3 -4 -5 -6 -7 -8 -9 -9 -10 -10 -11 -11 -11 -11 -11 -10 -10 -10 -11 -11 -11 -11 -10 -11 -10 -10 -10
12 10 9 7 5 4 3 2 2 1 1 0 -0 -1 -2 -3 -3 -4 -5 -6 -7 -8 -9 -9 -10 -11 -11 -11 -11 -11 -11 -11 -11 -11 -11 -11 -11 -11 -11 -10 -10 -10 -10
12 10 8 7 5 4 3 2 1 1 1 0 -0 -1 -2 -3 -3 -4 -5 -6 -7 -8 -9 -9 -10 -11 -11 -11 -11 -11 -11 -11 -11 -11 -11 -11 -11 -11 -11 -11 -10 -10 -10
12 10 8 6 4 3 2 1 1 1 1 0 -0 -1 -2 -3 -4 -4 -5 -6 -7 -8 -9 -9 -10 -11 -11 -11 -11 -11 -11 -11 -11 -11 -11 -11 -11 -11 -11 -11 -11 -10 -10
13 11 8 6 4 2 1 1 1 1 1 0 -1 -1 -2 -3 -4 -5 -6 -6 -7 -8 -8 -9 -10 -11 -11 -11 -12 -11 -11 -11 -11 -11 -11 -12 -12 -12 -12 -11 -11 -11 -10
13 11 8 5 3 2 1 1 1 1 0 -0 -1 -1 -2 -3 -4 -5 -6 -6 -7 -7 -8 -9 -10 -10 -11 -11 -12 -12 -11 -11 -11 -11 -11 -12 -12 -12 -12 -12 -11 -11 -10
12 10 7 5 3 2 1 1 1 1 0 -0 -1 -2 -2 -3 -4 -5 -5 -6 -7 -7 -8 -9 -9 -10 -10 -11 -11 -11 -11 -11 -11 -11 -11 -12 -12 -12 -12 -11 -11 -11 -10
12 9 7 5 3 2 1 1 1 1 0 -0 -1 -2 -2 -3 -4 -5 -5 -6 -6 -7 -8 -9 -9 -10 -10 -10 -10 -10 -10 -10 -10 -11 -11 -12 -12 -12 -12 -11 -11 -10 -10
12 10 7 5 3 2 1 1 1 1 0 -0 -1 -2 -2 -3 -4 -4 -5 -5 -6 -7 -8 -9 -9 -9 -9 -9 -10 -10 -9 -10 -10 -10 -11 -11 -12 -11 -11 -11 -11 -10 -11
12 10 8 6 4 3 2 1 1 1 1 -0 -1 -2 -2 -3 -4 -4 -5 -5 -6 -6 -7 -8 -9 -9 -9 -10 -9 -9 -9 -9 -10 -10 -11 -11 -12 -12 -11 -11 -11 -11 -11
13 11 9 7 5 4 3 2 2 1 1 -0 -1 -2 -2 -3 -4 -4 -4 -5 -5 -6 -7 -8 -9 -9 -9 -9 -9 -8 -8 -9 -10 -10 -11 -11 -12 -12 -11 -11 -12 -12 -12
14 12 11 8 6 4 3 2 2 1 1 -0 -1 -2 -2 -3 -3 -4 -4 -5 -5 -6 -7 -8 -9 -9 -9 -9 -9 -8 -8 -9 -10 -11 -11 -11 -12 -12 -11 -11 -12 -12 -12
14 13 11 9 6 4 3 2 2 1 1 -0 -1 -2 -2 -3 -3 -4 -4 -4 -5 -6 -7 -8 -9 -9 -9 -9 -9 -8 -9 -9 -10 -11 -11 -12 -12 -12 -11 -12 -12 -12 -12
13 12 11 9 6 5 4 3 2 1 1 0 -1 -2 -2 -3 -3 -3 -4 -4 -5 -5 -6 -7 -8 -9 -9 -9 -9 -8 -9 -9 -10 -11 -11 -12 -12 -11 -11 -12 -12 -12 -12
13 11 10 9 7 6 4 3 2 2 1 0 -1 -2 -2 -3 -3 -3 -4 -4 -5 -5 -6 -6 -7 -9 -10 -10 -9 -9 -9 -9 -10 -11 -11 -12 -12 -11 -12 -12 -12 -12 -12
12 11 9 8 7 6 4 3 3 2 1 -0 -1 -1 -2 -3 -3 -3 -4 -4 -5 -5 -5 -6 -7 -8 -10 -10 -10 -9 -9 -9 -10 -11 -11 -11 -11 -11 -12 -12 -12 -12 -13
12 10 9 7 6 5 5 4 3 2 1 -0 -1 -2 -2 -3 -3 -3 -4 -4 -4 -5 -5 -6 -7 -8 -9 -10 -10 -10 -10 -10 -10 -11 -11 -11 -11 -12 -12 -12 -12 -13 -13
12 10 8 7 6 5 5 4 3 2 1 0 -1 -2 -2 -3 -3 -3 -4 -4 -4 -5 -5 -6 -7 -8 -9 -10 -10 -10 -10 -10 -10 -10 -10 -11 -11 -12 -12 -12 -12 -13 -13
12 10 9 8 7 6 5 4 2 2 1 0 -1 -2 -2 -3 -3 -3 -4 -4 -4 -5 -5 -6 -7 -8 -9 -10 -10 -10 -10 -10 -10 -10 -10 -10 -11 -11 -12 -12 -12 -12 -13
12 10 9 8 6 5 5 4 3 2 1 0 -1 -1 -2 -2 -3 -3 -4 -4 -4 -5 -5 -6 -7 -7 -9 -10 -10 -10 -10 -10 -10 -10 -10 -11 -11 -11 -12 -12 -12 -12 -13
Wind_Speed
13 13 12 12 11 10 9 8 5 3 1 0 2 3 3 4 6 7 7 9 11 12 13 12 13 13 8 7 8 9 10 10 8 11 13 12 11 13 12 11 13 19 25
12 13 13 13 12 11 10 9 7 4 2 1 1 3 4 4 7 7 7 9 11 13 13 12 11 12 8 9 9 9 9 11 9 10 15 14 13 10 13 12 15 16 17
13 13 14 13 12 11 11 9 7 4 3 2 2 3 3 4 3 3 4 9 12 13 13 13 13 12 9 8 9 9 10 12 11 7 8 11 14 17 12 12 13 13 14
10 12 14 14 13 11 10 9 7 5 4 3 2 3 4 4 4 4 4 9 12 13 14 14 13 12 11 8 9 9 9 11 13 11 7 9 11 13 15 11 9 13 15
11 11 13 14 13 11 11 9 8 7 5 4 3 4 5 4 4 5 6 6 9 12 14 14 13 12 11 10 9 9 10 9 11 11 12 12 11 11 11 16 16 13 11
10 9 11 12 11 11 10 9 8 7 6 5 5 5 5 5 6 7 6 5 4 8 12 14 13 13 13 10 9 9 11 10 10 10 10 12 11 12 11 13 16 15 14
9 10 12 13 13 13 11 9 9 8 8 6 5 5 5 5 6 6 6 6 5 5 6 12 12 12 13 13 12 8 10 11 10 10 10 10 11 12 13 13 14 15 14
9 11 12 13 13 13 12 10 10 8 7 6 5 4 5 4 4 5 6 6 6 5 10 12 13 14 14 14 12 7 9 10 10 12 11 10 10 10 12 12 13 14 13
10 11 11 12 13 13 12 11 10 8 7 6 6 6 4 4 5 6 5 5 5 9 12 13 12 13 12 12 10 7 10 10 9 9 10 9 10 10 10 11 11 11 13
11 12 12 12 12 12 11 10 9 8 7 6 6 5 5 6 5 5 7 7 7 9 10 9 9 10 10 10 7 8 9 11 10 9 10 10 10 10 10 10 10 10 11
12 12 12 12 11 11 11 10 9 8 7 7 6 5 5 5 5 6 7 6 6 8 7 8 8 8 8 7 8 9 11 11 11 10 10 12 12 10 10 10 10 10 10
11 12 12 12 11 11 11 10 10 9 8 7 5 5 5 6 6 7 6 6 6 8 9 9 8 9 10 9 10 12 12 12 12 12 11 12 12 11 11 10 12 11 11
11 11 12 12 12 12 11 11 10 9 8 7 6 6 6 6 6 6 6 6 7 7 8 8 9 10 10 10 11 12 12 13 13 12 12 12 11 12 11 12 12 11 11
11 12 12 13 13 12 12 11 10 9 9 8 7 6 6 5 5 6 7 7 7 8 9 9 9 9 10 12 14 13 14 14 14 13 12 11 11 12 13 12 12 12 10
11 13 14 13 13 13 12 11 10 10 9 8 7 7 5 4 5 7 8 8 8 10 8 9 9 10 11 12 15 13 13 12 12 12 11 11 15 18 16 14 12 11 8
13 14 14 15 15 15 13 12 11 10 9 8 7 6 5 5 6 7 8 9 9 9 9 9 9 12 13 22 28 20 10 9 10 10 9 10 13 17 23 25 23 19 13
12 14 17 16 15 15 14 13 11 9 9 9 8 7 6 6 7 8 8 9 9 9 9 9 9 12 16 26 27 26 13 9 8 8 8 9 10 15 11 17 18 17 21
11 14 15 15 13 13 13 12 11 11 10 9 8 8 7 7 7 7 9 9 9 9 8 9 10 12 16 25 26 25 11 8 7 8 8 8 8 12 15 10 9 10 11
10 12 13 13 13 14 14 13 12 11 11 10 9 9 8 7 7 8 9 9 8 8 8 8 9 10 13 23 25 22 6 6 7 8 8 9 8 19 23 12 11 13 10
8 10 12 13 14 15 15 15 14 13 13 12 10 9 8 8 8 9 9 7 7 8 8 8 8 9 10 20 24 22 5 6 7 7 7 14 16 21 22 11 11 14 11
9 10 12 14 15 16 17 16 15 16 13 11 10 9 8 8 8 8 7 7 7 7 7 8 8 9 12 17 22 22 9 8 8 8 7 9 20 21 21 17 11 16 16
10 11 12 13 13 16 18 17 17 14 12 11 10 9 8 7 7 7 7 7 6 6 6 6 8 6 9 14 18 22 19 16 7 9 9 10 20 20 20 16 19 22 18
11 12 12 12 13 17 18 19 16 14 13 12 10 8 8 7 7 7 7 5 4 4 5 5 7 7 7 10 20 20 20 20 11 9 17 19 21 18 14 18 21 18 12
13 13 13 15 17 18 18 16 14 15 15 13 11 9 8 7 6 6 5 4 4 4 4 5 6 7 8 7 8 8 9 14 12 10 14 19 18 15 15 15 13 11 11
12 13 16 19 19 18 18 15 16 17 15 13 11 10 8 7 6 5 5 5 5 5 4 4 4 6 7 11 18 13 10 9 10 10 6 6 8 8 8 8 9 9 11
12 15 18 19 18 18 18 17 17 18 17 14 12 9 8 7 6 5 4 7 7 8 8 8 7 6 11 17 17 17 18 17 17 11 8 9 10 10 10 10 10 9 11
Wind_Direction
202 189 180 164 155 151 155 163 169 168 156 164 329 312 312 304 300 297 306 321 322 319 312 305 307 308 304 300 301 306 307 306 303 307 308 302 293 293 297 300 311 308 308
199 186 175 167 165 166 166 166 168 161 167 152 255 256 268 269 280 285 314 319 313 309 308 305 302 302 300 300 301 305 305 307 310 309 311 310 308 300 304 303 300 302 307
201 186 177 172 170 172 167 167 148 167 189 177 252 283 289 291 303 327 319 308 306 306 305 303 300 300 299 297 299 300 304 308 306 293 298 306 307 311 301 294 296 299 301
207 186 177 175 174 166 146 144 151 183 191 193 238 281 289 291 296 295 284 297 306 309 308 305 303 302 299 294 300 311 302 304 307 305 287 279 288 299 306 304 294 299 301
206 189 175 172 166 149 143 148 159 190 190 196 233 255 271 281 290 293 292 298 305 306 305 305 307 303 301 297 299 304 302 302 301 307 307 301 294 285 290 300 306 305 300
189 176 158 152 145 140 142 152 173 194 189 204 229 243 266 284 295 298 300 300 294 298 302 308 309 305 300 298 301 302 303 303 301 306 307 305 302 298 292 291 296 299 299
173 166 156 155 151 150 155 164 184 199 193 203 225 242 259 270 277 287 293 296 295 295 294 308 303 300 298 301 306 305 304 302 304 308 309 307 302 299 293 290 292 293 294
179 174 168 163 160 161 165 173 190 198 190 200 224 238 253 258 263 275 282 286 287 284 293 300 299 299 303 308 308 304 303 305 305 311 310 310 308 305 300 295 295 295 296
186 175 167 166 166 168 172 179 187 191 190 199 218 235 250 267 269 275 278 275 276 293 300 301 297 299 302 304 306 301 303 301 299 302 303 306 307 305 306 304 301 298 303
184 175 174 173 170 169 171 176 182 189 187 195 218 230 236 252 260 272 276 278 284 294 296 294 297 298 300 301 299 298 298 299 297 299 301 304 307 307 306 307 306 301 298
184 179 177 172 165 162 165 174 183 186 188 199 211 231 247 259 265 269 272 278 286 293 293 295 297 298 298 297 296 293 295 294 295 296 299 301 303 304 307 307 306 305 303
175 173 170 167 166 167 172 181 186 187 191 193 200 229 247 258 263 269 278 287 289 292 293 296 299 302 302 294 291 291 293 287 286 287 290 295 303 302 304 303 302 300 297
166 169 171 175 176 176 180 185 186 185 183 182 199 229 247 256 266 280 289 292 290 291 294 296 298 296 295 293 288 282 280 279 276 277 280 286 292 296 298 296 297 296 299
175 178 182 183 181 182 184 185 184 179 178 182 200 225 243 258 278 293 294 290 287 291 291 290 291 294 294 291 285 278 277 274 270 269 272 277 283 287 289 296 297 299 300
186 189 190 187 184 184 185 184 181 176 177 183 202 221 240 274 288 287 285 284 283 289 284 287 291 294 294 289 284 278 280 275 271 269 267 275 293 306 310 313 313 313 311
201 197 193 190 189 187 185 182 179 174 171 184 200 210 228 252 265 273 277 280 282 283 284 284 288 294 297 301 308 315 308 296 285 279 272 279 293 306 318 318 320 328 322
207 198 198 197 192 187 182 181 177 167 171 185 196 205 220 245 260 274 281 283 286 285 284 283 284 288 293 306 314 323 332 313 303 289 282 295 307 317 302 309 326 326 321
209 199 195 193 184 176 174 171 168 169 176 186 197 204 214 237 255 267 274 278 279 279 281 283 285 288 298 313 319 328 337 312 304 296 291 289 292 307 314 328 325 309 304
205 194 187 181 175 173 170 168 171 173 180 192 199 201 207 228 247 259 266 271 277 284 285 285 288 293 306 317 323 335 321 311 309 308 313 319 307 316 331 341 325 317 313
185 175 169 169 174 173 168 172 179 182 192 196 196 195 201 217 237 252 262 272 283 286 291 296 300 303 307 318 329 339 330 317 319 317 322 330 326 329 338 340 326 323 330
183 169 169 178 180 171 171 181 185 194 193 184 186 191 200 217 236 251 265 278 284 292 303 310 309 308 315 327 331 339 346 338 336 332 326 319 329 337 340 342 331 336 346
188 177 180 183 176 173 178 186 194 190 175 175 181 190 203 221 237 246 261 269 285 301 310 313 310 310 319 329 333 342 347 351 344 333 324 322 337 343 344 343 344 350 347
197 188 185 184 182 182 185 192 190 173 170 173 182 192 204 216 225 236 252 266 282 289 299 311 316 321 322 327 335 340 344 346 346 334 338 343 347 348 342 344 351 352 344
200 192 188 193 194 191 192 193 178 170 171 178 184 192 201 211 221 231 234 239 254 277 294 307 314 318 319 317 321 325 332 339 336 332 337 343 345 348 348 349 347 347 348
200 194 200 203 200 192 193 188 176 171 175 180 185 191 196 199 215 229 228 233 222 232 260 261 282 307 313 319 333 339 336 334 335 346 337 332 337 343 344 345 347 348 351
201 202 207 208 201 192 192 188 179 175 176 183 187 190 191 196 203 216 248 270 255 257 270 278 291 305 314 326 336 338 341 344 352 356 342 342 343 345 346 347 347 348 352
Height
1566 1567 1568 1567 1566 1566 1566 1566 1566 1565 1563 1561 1559 1557 1555 1552 1549 1546 1543 1539 1535 1530 1526 1521 1517 1514 1510 1506 1502 1498 1493 1487 1483 1477 1470 1463 1458 1453 1448 1443 1437 1432 1427
1561 1561 1562 1561 1560 1560 1561 1561 1561 1561 1559 1558 1556 1553 1551 1548 1546 1543 1540 1536 1531 1527 1523 1519 1514 1510 1507 1502 1499 1495 1489 1484 1480 1475 1467 1458 1451 1446 1442 1437 1432 1427 1422
1554 1555 1555 1555 1555 1556 1556 1556 1556 1557 1556 1554 1552 1549 1547 1545 1543 1540 1536 1532 1528 1524 1520 1516 1511 1507 1504 1499 1495 1492 1487 1481 1475 1472 1467 1458 1448 1440 1433 1430 1426 1422 1418
1549 1550 1549 1549 1549 1551 1551 1551 1552 1553 1552 1550 1548 1546 1544 1541 1539 1535 1532 1528 1524 1520 1516 1512 1508 1504 1500 1496 1492 1488 1484 1479 1472 1467 1462 1457 1450 1441 1430 1423 1420 1417 1413
1543 1544 1544 1544 1545 1545 1545 1547 1548 1549 1548 1546 1544 1542 1540 1538 1535 1531 1528 1524 1520 1516 1512 1509 1505 1500 1496 1492 1488 1484 1480 1475 1470 1464 1458 1451 1445 1439 1433 1423 1415 1411 1407
1538 1539 1540 1540 1540 1539 1540 1542 1544 1544 1543 1542 1540 1538 1536 1534 1531 1527 1524 1520 1516 1512 1508 1505 1500 1496 1492 1488 1484 1480 1475 1471 1466 1461 1455 1449 1443 1436 1430 1423 1415 1408 1403
1533 1534 1534 1534 1533 1533 1535 1537 1539 1539 1539 1538 1536 1535 1533 1530 1527 1523 1519 1515 1511 1508 1504 1500 1496 1492 1488 1484 1480 1475 1471 1466 1462 1457 1451 1445 1440 1434 1428 1421 1413 1406 1400
1527 1528 1528 1528 1527 1528 1530 1532 1534 1535 1534 1533 1532 1531 1529 1526 1523 1520 1516 1512 1508 1504 1500 1496 1492 1488 1484 1480 1475 1471 1466 1462 1457 1452 1447 1441 1435 1430 1425 1419 1412 1404 1397
1522 1522 1522 1522 1522 1523 1525 1527 1529 1530 1529 1529 1528 1526 1525 1522 1519 1516 1512 1508 1504 1500 1496 1492 1487 1483 1479 1475 1471 1466 1462 1457 1453 1447 1442 1436 1430 1425 1421 1416 1411 1406 1397
1516 1516 1516 1517 1517 1518 1520 1523 1524 1525 1525 1524 1524 1522 1521 1518 1515 1512 1508 1504 1500 1496 1492 1487 1483 1479 1475 1470 1466 1461 1457 1453 1448 1443 1437 1431 1425 1420 1415 1411 1407 1403 1397
1510 1510 1511 1511 1513 1513 1515 1517 1519 1520 1520 1520 1519 1518 1516 1514 1511 1507 1504 1500 1496 1492 1488 1483 1479 1474 1470 1465 1461 1456 1452 1447 1442 1438 1432 1427 1421 1415 1410 1406 1402 1398 1393
1505 1505 1506 1506 1507 1508 1509 1512 1514 1515 1515 1515 1514 1513 1512 1510 1507 1503 1500 1496 1492 1488 1484 1479 1475 1470 1465 1460 1456 1451 1447 1442 1437 1432 1427 1422 1416 1411 1406 1401 1397 1392 1388
1500 1500 1500 1500 1501 1502 1504 1506 1508 1509 1510 1510 1510 1509 1507 1505 1502 1499 1496 1492 1488 1484 1480 1476 1471 1466 1460 1455 1451 1446 1441 1436 1431 1426 1421 1416 1412 1407 1402 1397 1392 1387 1383
1494 1493 1493 1494 1494 1496 1498 1500 1502 1504 1504 1505 1505 1504 1502 1500 1498 1495 1492 1488 1484 1480 1476 1472 1467 1462 1457 1451 1446 1441 1435 1430 1425 1420 1416 1412 1407 1402 1398 1393 1387 1382 1377
1488 1487 1487 1487 1488 1489 1492 1494 1496 1498 1499 1499 1499 1499 1498 1496 1494 1491 1488 1484 1480 1476 1472 1468 1463 1459 1453 1447 1441 1436 1431 1425 1419 1414 1411 1407 1403 1399 1394 1389 1383 1378 1372
1482 1481 1480 1480 1480 1482 1484 1487 1490 1491 1493 1494 1494 1494 1493 1491 1489 1487 1484 1480 1476 1472 1468 1464 1460 1455 1450 1444 1439 1434 1428 1422 1416 1410 1406 1402 1398 1394 1389 1384 1379 1374 1368
1476 1474 1473 1472 1473 1475 1477 1480 1483 1485 1487 1488 1489 1489 1488 1487 1485 1482 1479 1476 1472 1468 1464 1460 1456 1451 1446 1441 1436 1431 1425 1418 1413 1407 1402 1398 1394 1390 1384 1378 1373 1368 1363
1469 1467 1466 1465 1467 1469 1471 1475 1477 1479 1481 1482 1483 1483 1483 1482 1480 1478 1475 1472 1468 1464 1460 1456 1452 1448 1443 1439 1433 1428 1421 1415 1410 1404 1399 1395 1390 1385 1380 1374 1368 1362 1357
1463 1461 1460 1459 1460 1462 1464 1468 1470 1472 1474 1476 1477 1478 1478 1477 1476 1474 1471 1468 1464 1461 1457 1453 1449 1444 1440 1436 1430 1425 1418 1412 1407 1401 1396 1392 1387 1382 1377 1370 1364 1357 1351
1456 1454 1453 1452 1453 1454 1457 1460 1462 1465 1467 1469 1471 1472 1472 1472 1471 1469 1467 1464 1461 1458 1454 1450 1446 1441 1437 1433 1428 1423 1416 1410 1404 1399 1393 1388 1384 1379 1374 1368 1361 1354 1348
1450 1447 1446 1445 1445 1447 1450 1452 1455 1457 1461 1464 1465 1466 1467 1467 1466 1465 1463 1461 1458 1454 1451 1447 1442 1438 1434 1430 1426 1421 1415 1409 1403 1397 1391 1386 1382 1377 1372 1366 1360 1354 1346
1442 1440 1438 1437 1438 1440 1442 1444 1447 1451 1455 1457 1459 1460 1461 1461 1461 1461 1459 1457 1454 1451 1448 1443 1439 1435 1431 1428 1424 1419 1414 1409 1402 1396 1390 1385 1381 1375 1370 1364 1359 1352 1344
1435 1433 1431 1431 1431 1431 1433 1436 1439 1444 1446 1449 1452 1454 1455 1456 1456 1456 1455 1453 1451 1448 1444 1440 1436 1431 1428 1425 1421 1417 1412 1407 1402 1396 1391 1385 1380 1374 1368 1363 1357 1350 1343
1427 1425 1423 1422 1421 1422 1425 1429 1433 1436 1439 1442 1445 1447 1449 1450 1451 1451 1450 1449 1447 1445 1442 1438 1433 1429 1425 1421 1418 1414 1410 1405 1400 1395 1390 1385 1379 1373 1368 1362 1356 1350 1344
1420 1417 1414 1412 1412 1414 1417 1421 1424 1428 1431 1434 1438 1440 1442 1444 1445 1446 1446 1445 1444 1442 1439 1435 1431 1427 1422 1420 1418 1414 1409 1405 1400 1395 1390 1383 1378 1372 1367 1362 1357 1351 1345
1411 1408 1405 1403 1403 1405 1408 1412 1415 1419 1422 1426 1429 1432 1435 1437 1439 1441 1441 1441 1440 1439 1436 1433 1430 1425 1422 1419 1415 1412 1408 1404 1400 1395 1389 1384 1379 1374 1368 1363 1358 1352 1347